SCP
0 0 0 0 0 0 0 0 0 0 0 0 0 0 0 0 0 0 0 0 0 0 0 0 0 0 0 0 0 0 0 0 0 0 0 0 0 0 0 0 0 0 0
0 0 0 0 0 0 0 0 0 0 0 0 0 0 0 0 0 0 0 0 0 0 0 0 0 0 0 0 0 0 0 0 0 0 0 0 0 0 0 0 0 0 0
0 0 0 0 1 0 0 0 0 0 0 0 0 0 0 0 0 0 0 0 0 0 0 0 0 0 0 0 0 0 0 0 0 0 0 0 0 0 0 0 0 0 0
0 0 1 1 1 1 1 0 0 0 0 0 0 0 0 0 0 0 0 0 0 0 0 0 0 0 0 0 0 0 0 0 0 0 0 0 0 0 0 0 0 0 0
0 1 1 1 1 1 1 0 0 0 0 0 0 0 0 0 0 0 0 0 0 0 0 0 0 0 0 0 0 0 0 0 0 0 0 0 0 0 0 0 0 0 0
1 1 1 1 1 1 1 0 0 0 0 0 0 0 0 0 0 0 0 0 0 0 0 0 0 0 0 0 0 0 0 0 0 0 0 0 0 0 0 0 0 0 0
1 1 1 1 1 1 1 0 0 0 0 0 0 0 0 0 0 0 0 0 0 0 0 0 0 0 0 0 0 0 0 0 0 0 0 0 0 0 0 0 0 0 0
1 1 1 1 1 1 1 1 0 0 0 0 0 0 0 0 0 0 0 0 0 0 0 0 0 0 0 0 0 0 0 0 0 0 0 0 0 0 0 0 0 0 0
1 1 1 1 1 1 1 1 0 0 0 0 0 0 0 0 0 0 0 0 0 0 0 0 0 0 0 0 0 0 0 0 0 0 0 0 0 0 0 0 0 0 0
1 1 1 1 1 1 0 0 0 0 0 0 0 0 0 0 0 0 0 0 0 0 0 0 0 0 0 0 0 0 0 0 0 0 0 0 0 0 0 0 0 0 0
0 0 0 1 0 0 0 0 0 0 0 0 0 0 0 0 0 0 0 0 0 0 0 0 0 0 0 0 0 0 0 0 0 0 0 0 0 0 0 0 0 0 0
0 0 0 0 0 0 0 0 0 0 0 0 0 0 0 0 0 0 0 0 0 0 0 0 0 0 0 0 0 0 0 0 0 0 0 0 0 0 0 0 0 0 0
0 0 0 0 0 0 0 0 0 0 0 0 0 0 0 0 0 0 0 0 0 0 0 0 0 0 0 0 0 0 0 0 0 0 0 0 0 0 0 0 0 0 0
0 0 0 0 0 0 0 0 0 0 0 0 0 0 0 0 0 0 0 0 0 0 0 0 0 0 0 0 0 0 0 0 0 0 0 0 0 0 0 0 0 0 0
0 0 0 0 0 0 0 0 0 0 0 0 0 0 0 0 0 0 0 0 0 0 0 0 0 0 0 0 0 0 0 0 0 0 0 0 0 0 0 0 0 0 0
0 0 0 0 0 0 0 0 0 0 0 0 0 0 0 0 0 0 0 0 0 0 0 0 0 0 0 0 0 0 0 0 0 0 0 0 0 0 0 0 0 0 0
0 0 0 0 0 0 0 0 0 0 0 0 0 0 0 0 0 0 0 0 0 0 0 0 0 0 0 0 0 0 0 0 0 0 0 0 0 0 0 0 0 0 0
0 0 0 0 0 0 0 0 0 0 0 0 0 0 0 0 0 0 0 0 0 0 0 0 0 0 0 0 0 0 0 0 0 0 0 0 0 0 0 0 0 0 0
0 0 0 0 0 0 0 -0 -0 0 0 0 0 0 0 0 0 0 0 0 0 0 0 0 0 0 0 0 0 0 0 0 0 0 0 0 0 0 0 0 0 0 0
0 0 0 0 0 0 -0 -0 -0 0 0 0 0 0 0 0 0 0 0 0 0 0 0 0 0 0 0 0 0 0 0 0 0 0 0 0 0 0 0 0 0 0 0
0 0 0 0 0 0 -0 -0 -0 0 0 0 0 0 0 0 0 0 0 0 0 0 0 0 0 0 0 0 0 0 0 0 0 0 0 0 0 0 0 0 0 0 0
0 0 0 0 0 0 0 0 0 0 0 0 0 0 0 0 0 0 0 0 0 0 0 0 0 0 0 0 0 0 0 0 0 0 0 0 0 0 0 0 0 0 0
0 0 0 0 0 0 0 0 0 0 0 0 0 0 0 0 0 0 0 0 0 0 0 0 0 0 0 0 0 0 0 0 0 0 0 0 0 0 0 0 0 0 0
0 0 0 0 0 0 0 0 0 0 0 0 0 0 0 0 0 0 0 0 0 0 0 0 0 0 0 0 0 0 0 0 0 0 0 0 0 0 0 0 0 0 0
0 0 0 0 0 0 0 0 0 0 0 0 0 0 0 0 0 0 0 0 0 0 0 0 0 0 0 0 0 0 0 0 0 0 0 0 0 0 0 0 0 0 0
0 0 0 0 0 0 0 0 0 0 0 0 0 0 0 0 0 0 0 0 0 0 0 0 0 0 0 0 0 0 0 0 0 0 0 0 0 0 0 0 0 0 0
Wind_Speed
2 3 7 8 8 8 8 8 8 8 8 8 8 8 8 7 7 7 6 6 6 6 5 6 4 4 4 4 4 4 4 4 4 5 5 5 5 6 6 6 5 4 6
5 5 7 8 8 8 8 8 8 7 7 7 7 7 7 7 7 6 6 6 6 5 5 5 5 4 3 2 2 2 2 2 3 3 3 3 3 3 4 4 4 3 5
7 5 6 8 8 8 8 8 7 7 7 7 6 6 6 6 6 6 6 6 6 6 5 5 5 5 4 2 1 1 1 1 1 1 1 1 0 1 2 4 4 4 4
7 5 6 8 8 8 8 8 7 7 7 6 6 6 6 6 6 6 6 5 6 6 5 5 5 4 4 4 2 1 2 2 1 1 0 1 1 2 3 3 4 4 3
6 4 6 9 9 8 8 8 8 8 7 7 7 6 6 6 5 6 6 6 6 6 5 5 5 5 4 4 3 3 3 3 1 1 1 1 2 3 4 5 5 4 3
6 4 5 8 9 8 8 7 8 7 7 7 7 7 7 6 6 6 6 6 6 6 5 5 5 5 5 4 4 4 4 3 2 1 1 2 2 4 6 6 6 5 5
6 4 5 8 8 8 8 7 7 7 7 7 7 7 7 7 6 6 6 6 6 6 6 5 5 5 5 6 6 5 5 4 2 2 2 2 3 6 6 7 7 6 6
6 5 5 8 8 7 7 7 7 7 7 7 7 7 7 7 7 6 6 6 6 6 6 6 6 6 6 6 7 6 5 4 3 3 3 3 5 6 7 7 7 7 7
6 5 4 4 5 6 7 7 7 7 7 7 7 7 7 7 7 7 7 7 7 6 7 7 7 7 7 7 7 7 6 5 3 2 4 3 5 7 8 8 8 8 8
6 5 4 4 4 3 3 6 7 7 7 8 8 9 8 8 7 8 7 8 7 7 7 7 8 8 7 7 7 7 6 4 3 3 3 4 7 8 8 8 9 9 9
5 4 4 4 4 3 3 5 5 7 7 7 7 8 7 4 4 4 7 8 8 8 8 8 9 9 8 7 8 7 5 2 2 2 3 6 9 9 9 9 9 10 10
3 3 3 3 3 3 3 3 2 3 3 4 3 4 3 3 3 5 7 9 9 9 9 9 10 8 7 4 5 6 2 3 2 3 3 7 9 9 10 9 9 10 10
3 3 3 3 3 3 2 2 2 2 2 3 3 3 3 3 3 3 3 4 5 7 5 7 6 5 4 4 4 3 3 2 2 3 4 7 8 9 9 9 9 9 9
3 3 2 3 3 3 3 2 2 2 2 2 3 3 2 2 2 2 2 3 3 3 4 4 3 5 5 5 4 5 4 3 2 2 3 6 7 8 8 8 8 9 9
4 3 2 3 3 3 3 2 2 2 2 2 2 3 3 2 2 2 2 2 3 3 3 4 4 5 5 5 5 5 5 4 3 2 2 4 5 6 7 8 8 8 9
3 3 2 3 3 3 3 2 2 2 2 2 2 3 3 2 2 2 2 3 3 3 3 3 4 4 4 4 5 6 5 4 3 3 2 3 4 5 6 7 7 8 8
3 3 3 3 3 3 3 2 2 2 2 2 2 3 3 3 2 2 2 2 3 3 4 3 4 4 4 5 6 6 4 4 3 3 2 2 3 4 6 6 6 6 7
3 3 2 3 3 3 2 2 2 2 2 2 2 3 4 3 3 2 2 2 3 3 3 3 4 4 4 5 5 4 4 3 3 3 3 3 2 3 4 7 6 7 7
4 4 3 2 2 2 2 2 2 2 3 2 2 2 3 3 3 2 2 2 3 3 3 4 3 3 4 5 5 4 3 3 3 3 3 4 3 3 3 6 7 8 9
3 3 3 2 2 2 2 2 2 2 2 2 2 2 3 3 3 3 2 3 3 3 3 3 3 3 3 4 4 4 3 3 2 3 3 4 4 5 4 5 4 6 9
3 3 3 2 1 2 2 1 1 0 0 1 1 1 2 2 3 2 2 2 3 2 3 4 3 4 4 4 3 4 3 3 3 3 3 3 5 5 4 4 3 3 4
4 4 3 3 2 2 2 2 2 2 1 1 0 1 1 2 2 2 2 2 2 2 3 4 3 2 3 4 2 2 3 4 4 4 3 4 5 4 5 5 4 4 4
4 5 4 4 3 3 3 2 2 1 1 1 1 1 1 1 1 1 2 2 2 2 2 3 3 2 2 2 2 1 1 2 4 3 3 3 4 4 4 4 5 5 5
5 4 4 3 3 3 3 3 3 2 2 2 1 1 1 1 1 1 1 1 1 1 2 2 2 1 1 2 2 1 0 1 2 4 3 3 4 4 4 4 4 4 5
4 3 3 3 3 3 3 4 3 3 2 1 1 1 1 1 1 1 1 1 1 1 1 1 2 1 1 0 1 1 1 1 1 2 4 5 4 3 3 3 2 3 4
2 2 2 3 3 3 3 4 4 5 4 2 2 2 2 1 1 1 1 1 1 1 1 1 1 1 1 1 1 1 1 1 1 1 3 4 4 4 4 2 2 3 3
Wind_Direction
157 156 116 110 104 97 92 87 83 78 73 68 65 63 61 58 53 52 53 51 50 46 47 48 53 61 69 78 78 75 76 78 77 75 73 75 79 84 87 88 82 76 92
150 145 115 110 105 98 93 87 81 76 72 68 65 61 58 54 51 49 47 45 43 41 41 40 39 42 47 65 70 70 78 83 79 79 74 66 71 86 98 101 102 99 101
134 136 122 108 103 97 92 87 80 74 69 64 62 59 54 49 47 44 41 39 36 34 32 29 27 26 24 25 51 46 44 50 54 73 97 79 103 131 128 121 123 112 108
127 126 119 107 102 97 93 87 80 76 69 62 59 55 50 44 42 40 37 35 31 27 26 21 15 12 11 10 355 329 315 309 318 303 159 243 243 213 192 161 152 143 126
111 110 117 106 101 96 92 85 79 74 68 62 56 51 47 43 40 37 35 32 27 20 14 10 6 358 353 348 344 324 301 293 284 245 246 241 236 234 213 191 176 170 164
100 95 105 103 101 96 91 84 79 74 67 61 53 47 42 41 37 35 32 27 22 16 6 358 354 348 341 331 323 321 312 296 266 240 252 246 228 232 223 205 193 189 186
99 86 90 95 98 96 92 85 78 74 68 62 54 48 43 39 36 33 28 24 20 11 2 351 345 340 335 328 323 317 315 316 273 246 247 249 239 236 230 215 205 205 202
105 90 87 84 89 91 89 85 77 72 67 60 51 47 42 38 34 31 25 21 15 8 2 354 343 337 330 326 323 321 312 305 288 258 249 246 244 240 234 223 214 214 213
93 86 74 72 77 77 80 79 72 67 63 55 48 42 37 33 32 32 25 19 12 6 1 356 347 336 330 325 324 323 315 299 279 255 253 245 243 244 243 235 225 224 223
84 79 71 61 59 67 75 70 67 62 57 50 44 40 38 31 26 26 20 15 11 6 358 352 346 337 330 326 323 323 322 307 279 260 255 250 249 251 251 245 235 232 231
77 65 67 64 56 52 75 68 63 60 52 49 42 40 37 23 18 21 14 13 10 8 2 357 350 344 338 327 325 323 320 304 284 267 258 260 257 258 257 254 245 239 238
91 69 59 64 59 54 62 65 54 60 51 44 39 34 26 19 15 22 12 13 10 7 1 357 354 350 346 330 324 326 312 296 275 268 264 265 263 265 265 260 252 244 241
121 96 66 65 58 57 58 61 47 48 47 39 33 30 26 23 14 17 12 8 4 4 358 353 353 348 340 333 326 318 307 296 280 276 275 274 275 276 272 267 259 251 248
121 109 86 74 67 59 63 61 59 55 52 40 23 27 35 26 15 7 10 2 5 358 351 352 347 342 340 335 329 325 316 307 291 283 281 286 286 285 283 280 271 261 254
125 117 98 85 73 68 65 54 52 43 55 46 32 26 37 34 14 6 4 6 0 358 356 349 348 342 339 337 335 333 327 315 310 302 299 306 306 300 296 289 283 275 266
132 132 112 90 79 77 78 72 56 43 48 45 33 25 36 34 19 14 9 6 1 357 351 343 343 340 336 335 333 331 321 322 323 323 324 326 329 325 313 303 299 291 284
140 134 130 117 91 87 85 78 66 47 56 50 31 24 32 35 28 27 18 8 357 352 353 351 353 349 350 343 332 327 332 338 335 339 340 338 336 344 338 326 318 314 305
137 131 124 117 103 98 98 86 70 58 65 54 37 27 24 26 29 32 27 6 353 359 3 359 2 353 349 341 330 327 335 339 345 357 6 6 0 355 353 352 346 336 325
148 142 131 121 119 120 105 90 78 65 63 54 41 33 20 21 28 35 28 5 1 8 6 358 360 354 341 338 326 326 335 341 345 4 20 24 23 20 12 9 8 0 350
147 142 139 137 136 124 102 82 67 54 53 47 35 32 22 12 22 30 29 12 9 13 6 360 349 351 337 331 326 332 332 339 356 15 19 27 26 26 22 19 16 14 16
144 145 152 152 158 126 111 108 103 96 24 25 13 28 23 9 14 30 20 10 10 15 1 352 347 350 351 348 351 342 340 359 26 23 21 30 24 19 21 20 16 14 7
171 175 173 177 177 170 161 160 164 170 186 211 303 8 13 11 7 25 25 13 6 9 6 3 3 357 350 5 8 349 342 342 2 11 20 29 17 12 17 15 16 14 11
194 197 191 193 191 189 170 138 117 83 32 2 332 325 335 350 360 11 16 17 7 17 3 354 3 13 345 343 18 34 4 311 319 324 4 18 11 9 2 357 12 15 21
212 208 199 196 197 194 171 161 169 176 200 225 225 251 301 328 339 350 13 17 6 6 358 347 9 357 2 335 340 360 284 261 304 314 321 352 358 356 350 352 7 12 16
206 207 210 202 207 200 182 179 179 193 209 225 242 275 295 304 307 322 351 11 354 344 334 341 354 4 10 332 317 314 312 311 297 273 301 323 333 330 336 345 1 6 6
210 212 216 209 221 211 196 192 189 200 209 217 240 252 270 279 288 298 302 332 317 305 301 309 327 354 346 332 313 296 274 277 286 273 281 303 309 307 316 343 9 0 359